This demonstration page uses our WeatherBlox Daily Observations layout. Learn more.

Left ArrowRight Arrow

44.89941, -97.11507

Hourly Observations for June 1, 2016

Temp ( °F °C ) Dew Point ( °F °C ) Humidity (%) Winds ( mph kmh ) Pressure ( in mb ) Visibility ( mi km ) Precip ( " mm )
12:53 am 00:53 Cloudy 57 13.9 45 7.2 64 64 WSW 17 28 29.83 1010 10 16 0.00 0.00
1:53 am 01:53 Cloudy 55 12.8 45 7.2 69 69 W 21 33 29.83 1010 10 16 0.00 0.00
2:34 am 02:34 Cloudy 54 12.2 45 7.2 72 72 W 24 39 29.85 1011 10 16 0.00 0.00
2:53 am 02:53 Cloudy 54 12.2 46 7.8 75 75 W 18 30 29.84 1011 10 16 0.00 0.00
3:53 am 03:53 Cloudy 54 12.2 46 7.8 75 75 W 18 30 29.84 1011 10 16 0.00 0.00
4:17 am 04:17 Mostly Cloudy 53 11.7 46 7.8 77 77 W 20 31 29.85 1011 10 16 0.00 0.00
4:53 am 04:53 Mostly Cloudy 53 11.7 45 7.2 74 74 W 20 31 29.84 1011 10 16 0.00 0.00
5:53 am 05:53 Cloudy 53 11.7 45 7.2 74 74 W 23 37 29.84 1011 10 16 0.00 0.00
6:08 am 06:08 Cloudy 53 11.7 45 7.2 74 74 W 20 31 29.85 1011 10 16 0.00 0.00
6:53 am 06:53 Cloudy 53 11.7 45 7.2 74 74 W 23 37 29.86 1011 10 16 0.00 0.00
7:15 am 07:15 Cloudy 53 11.7 44 6.7 72 72 W 17 28 29.88 1012 10 16 0.00 0.00
7:53 am 07:53 Cloudy 53 11.7 46 7.8 77 77 W 20 31 29.88 1012 10 16 0.00 0.00
8:53 am 08:53 Cloudy 55 12.8 45 7.2 69 69 WNW 21 33 29.89 1012 10 16 0.00 0.00
9:53 am 09:53 Cloudy 55 12.8 44 6.7 67 67 WNW 23 37 29.91 1013 10 16 0.00 0.00
10:00 am 10:00 Cloudy 56 13.3 45 7.2 67 67 W 24 39 29.91 1013 10 16 0.00 0.00
10:53 am 10:53 Cloudy 56 13.3 45 7.2 67 67 W 22 35 29.93 1014 10 16 0.00 0.00
11:34 am 11:34 Cloudy 56 13.3 44 6.7 65 65 W 21 33 29.94 1014 10 16 0.00 0.00
11:53 am 11:53 Cloudy 56 13.3 43 6.1 62 62 W 22 35 29.95 1014 10 16 0.00 0.00
12:14 pm 12:14 Cloudy 57 13.9 42 5.6 58 58 WNW 23 37 29.94 1014 10 16 0.00 0.00
12:53 pm 12:53 Cloudy 57 13.9 43 6.1 60 60 WNW 17 28 29.95 1014 10 16 0.00 0.00
1:53 pm 13:53 Cloudy 58 14.4 45 7.2 62 62 WNW 16 26 29.96 1015 10 16 0.00 0.00
2:53 pm 14:53 Cloudy 60 15.6 43 6.1 53 53 WNW 21 33 29.97 1015 10 16 0.00 0.00
3:53 pm 15:53 Cloudy 61 16.1 44 6.7 54 54 NW 21 33 29.96 1015 10 16 0.00 0.00
4:53 pm 16:53 Cloudy 61 16.1 44 6.7 54 54 NW 17 28 29.96 1015 10 16 0.00 0.00
5:53 pm 17:53 Cloudy 60 15.6 44 6.7 56 56 NW 18 30 29.97 1015 10 16 0.00 0.00
6:53 pm 18:53 Cloudy 59 15 43 6.1 56 56 NNW 15 24 29.98 1015 10 16 0.00 0.00
7:53 pm 19:53 Cloudy 58 14.4 44 6.7 60 60 NW 16 26 30.00 1016 10 16 0.00 0.00
8:53 pm 20:53 Partly Cloudy 57 13.9 43 6.1 60 60 NNW 12 19 30.01 1016 10 16 0.00 0.00
9:53 pm 21:53 Mostly Cloudy 55 12.8 44 6.7 67 67 NW 8 13 30.03 1017 10 16 0.00 0.00
10:53 pm 22:53 Clear 53 11.7 45 7.2 74 74 NW 7 11 30.04 1017 10 16 0.00 0.00
11:53 pm 23:53 Clear 53 11.7 45 7.2 74 74 NW 6 9 30.05 1018 10 16 0.00 0.00

Powered by AerisWeather